When you browse on this site, cookies collect data to enhance your experience and personalize the content and advertising you see.
Visit our Privacy Policy to learn more. By continuing to use the site, you agree to this use of cookies and data.
  • în România
  • Lista ţărilor
  • Pe 7 zile
  • Temperatura apei
  • Meteo pe hartă
  • Widget-uri
  • user-avatar
    Intrare

    Meteo pe oră la San Sebastian

    Astăzi, 25 Februarie, Marţi

    Timp Temperatura Precipitaţii Vânt Presiune Umiditate
    00:00 +7°C° 0 mm 2 m/s 736 mmHg 60%
    01:00 +7°C° 0 mm 2 m/s 735 mmHg 64%
    02:00 +6°C° 0 mm 2 m/s 735 mmHg 67%
    03:00 +7°C° 0 mm 1 m/s 734 mmHg 70%
    04:00 +6°C° 0 mm 2 m/s 734 mmHg 74%
    05:00 +6°C° 0 mm 2 m/s 734 mmHg 79%
    06:00 +5°C° 0 mm 3 m/s 734 mmHg 83%
    07:00 +7°C° 0 mm 3 m/s 734 mmHg 81%
    08:00 +7°C° 0 mm 3 m/s 734 mmHg 79%
    09:00 +8°C° 0 mm 3 m/s 734 mmHg 77%
    10:00 +8°C° 0 mm 4 m/s 734 mmHg 73%
    11:00 +11°C° 0 mm 4 m/s 734 mmHg 68%
    12:00 +12°C° 0 mm 5 m/s 734 mmHg 64%
    13:00 +12°C° 0 mm 5 m/s 733 mmHg 66%
    14:00 +11°C° 0 mm 6 m/s 732 mmHg 67%
    15:00 +11°C° 0 mm 6 m/s 732 mmHg 69%
    16:00 +10°C° 0.2 mm 6 m/s 732 mmHg 73%
    17:00 +9°C° 0.2 mm 6 m/s 732 mmHg 77%
    18:00 +9°C° 0.2 mm 6 m/s 733 mmHg 81%
    19:00 +8°C° 0.2 mm 6 m/s 733 mmHg 82%
    20:00 +7°C° 0.2 mm 6 m/s 733 mmHg 82%
    21:00 +5°C° 0.2 mm 6 m/s 734 mmHg 82%
    22:00 +5°C° 0 mm 6 m/s 734 mmHg 81%
    23:00 +6°C° 0 mm 5 m/s 734 mmHg 81%

    Mâine, 26 Februarie, Miercuri

    Timp Temperatura Precipitaţii Vânt Presiune Umiditate
    00:00 +6°C° 0 mm 5 m/s 733 mmHg 80%
    01:00 +5°C° 0.1 mm 5 m/s 733 mmHg 82%
    02:00 +5°C° 0.1 mm 5 m/s 733 mmHg 83%
    03:00 +4°C° 0.1 mm 6 m/s 732 mmHg 84%
    04:00 +4°C° 0.2 mm 6 m/s 732 mmHg 84%
    05:00 +4°C° 0.2 mm 6 m/s 732 mmHg 84%
    06:00 +4°C° 0.2 mm 7 m/s 732 mmHg 84%
    07:00 +4°C° 0.4 mm 7 m/s 732 mmHg 83%
    08:00 +4°C° 0.4 mm 8 m/s 732 mmHg 81%
    09:00 +3°C° 0.4 mm 9 m/s 733 mmHg 80%
    10:00 +5°C° 0.5 mm 9 m/s 733 mmHg 79%
    11:00 +5°C° 0.5 mm 8 m/s 733 mmHg 79%
    12:00 +5°C° 0.5 mm 8 m/s 733 mmHg 79%
    13:00 +5°C° 0.4 mm 8 m/s 733 mmHg 76%
    14:00 +5°C° 0.4 mm 8 m/s 733 mmHg 74%
    15:00 +6°C° 0.4 mm 8 m/s 733 mmHg 72%
    16:00 +5°C° 0.2 mm 7 m/s 734 mmHg 76%
    17:00 +4°C° 0.2 mm 6 m/s 734 mmHg 80%
    18:00 +3°C° 0.2 mm 5 m/s 735 mmHg 84%
    19:00 +3°C° 0.1 mm 5 m/s 735 mmHg 85%
    20:00 +4°C° 0.1 mm 4 m/s 736 mmHg 86%
    21:00 +3°C° 0.1 mm 4 m/s 736 mmHg 86%
    22:00 +3°C° 0 mm 3 m/s 736 mmHg 87%
    23:00 +2°C° 0 mm 3 m/s 736 mmHg 88%

    Poimâine, 27 Februarie, Joi

    Timp Temperatura Precipitaţii Vânt Presiune Umiditate
    00:00 +3°C° 0 mm 2 m/s 736 mmHg 89%
    01:00 +3°C° 0 mm 2 m/s 735 mmHg 86%
    02:00 +3°C° 0 mm 2 m/s 735 mmHg 83%
    03:00 +3°C° 0 mm 2 m/s 734 mmHg 80%
    04:00 +3°C° 0 mm 2 m/s 734 mmHg 77%
    05:00 +4°C° 0 mm 2 m/s 734 mmHg 74%
    06:00 +4°C° 0 mm 2 m/s 733 mmHg 72%
    07:00 +5°C° 0.2 mm 2 m/s 733 mmHg 72%
    08:00 +4°C° 0.2 mm 3 m/s 733 mmHg 72%
    09:00 +5°C° 0.2 mm 3 m/s 733 mmHg 73%
    10:00 +7°C° 0.1 mm 4 m/s 732 mmHg 66%
    11:00 +10°C° 0.1 mm 6 m/s 732 mmHg 59%
    12:00 +12°C° 0.1 mm 7 m/s 732 mmHg 53%
    13:00 +13°C° 0 mm 8 m/s 732 mmHg 50%
    14:00 +13°C° 0 mm 8 m/s 731 mmHg 48%
    15:00 +13°C° 0 mm 9 m/s 731 mmHg 45%
    16:00 +12°C° 0 mm 8 m/s 731 mmHg 50%
    17:00 +11°C° 0 mm 8 m/s 731 mmHg 56%
    18:00 +10°C° 0 mm 8 m/s 732 mmHg 61%
    19:00 +10°C° 0 mm 8 m/s 732 mmHg 63%
    20:00 +10°C° 0 mm 8 m/s 732 mmHg 65%
    21:00 +10°C° 0 mm 7 m/s 733 mmHg 68%
    22:00 +10°C° 0 mm 7 m/s 733 mmHg 68%
    23:00 +10°C° 0 mm 7 m/s 733 mmHg 68%

    28 Februarie, Vineri

    Timp Temperatura Precipitaţii Vânt Presiune Umiditate
    00:00 +10°C° 0 mm 6 m/s 734 mmHg 68%
    01:00 +10°C° 0 mm 6 m/s 734 mmHg 69%
    02:00 +10°C° 0 mm 5 m/s 734 mmHg 69%
    03:00 +10°C° 0 mm 5 m/s 734 mmHg 70%
    04:00 +10°C° 0.1 mm 4 m/s 734 mmHg 71%
    05:00 +10°C° 0.1 mm 4 m/s 734 mmHg 72%
    06:00 +10°C° 0.1 mm 3 m/s 734 mmHg 72%
    07:00 +11°C° 0.1 mm 3 m/s 735 mmHg 71%
    08:00 +11°C° 0.1 mm 3 m/s 735 mmHg 69%
    09:00 +12°C° 0.1 mm 4 m/s 735 mmHg 67%
    10:00 +13°C° 0 mm 4 m/s 735 mmHg 65%
    11:00 +14°C° 0 mm 4 m/s 735 mmHg 63%
    12:00 +15°C° 0 mm 4 m/s 735 mmHg 60%
    13:00 +15°C° 0 mm 4 m/s 734 mmHg 60%
    14:00 +16°C° 0 mm 3 m/s 734 mmHg 60%
    15:00 +16°C° 0 mm 3 m/s 734 mmHg 60%
    16:00 +15°C° 0 mm 2 m/s 733 mmHg 68%
    17:00 +13°C° 0 mm 1 m/s 733 mmHg 75%
    18:00 +12°C° 0 mm 1 m/s 733 mmHg 83%
    19:00 +11°C° 0 mm 1 m/s 733 mmHg 83%
    20:00 +10°C° 0 mm 2 m/s 733 mmHg 83%
    21:00 +10°C° 0 mm 2 m/s 733 mmHg 83%
    22:00 +10°C° 0 mm 2 m/s 732 mmHg 81%
    23:00 +10°C° 0 mm 2 m/s 731 mmHg 79%

    29 Februarie, Sâmbătă

    Timp Temperatura Precipitaţii Vânt Presiune Umiditate
    00:00 +9°C° 0 mm 3 m/s 730 mmHg 78%
    01:00 +9°C° 0 mm 3 m/s 730 mmHg 77%
    02:00 +9°C° 0 mm 3 m/s 729 mmHg 76%
    03:00 +9°C° 0 mm 3 m/s 728 mmHg 75%
    04:00 +8°C° 0 mm 2 m/s 728 mmHg 75%
    05:00 +8°C° 0 mm 2 m/s 728 mmHg 75%
    06:00 +8°C° 0 mm 2 m/s 728 mmHg 75%
    07:00 +9°C° 0 mm 2 m/s 728 mmHg 71%
    08:00 +12°C° 0 mm 2 m/s 729 mmHg 66%
    09:00 +13°C° 0 mm 2 m/s 729 mmHg 62%
    10:00 +14°C° 0 mm 3 m/s 729 mmHg 57%
    11:00 +16°C° 0 mm 3 m/s 729 mmHg 52%
    12:00 +17°C° 0 mm 4 m/s 729 mmHg 47%
    13:00 +15°C° 0.1 mm 4 m/s 729 mmHg 57%
    14:00 +13°C° 0.1 mm 5 m/s 729 mmHg 68%
    15:00 +12°C° 0.1 mm 5 m/s 729 mmHg 78%
    16:00 +10°C° 0.5 mm 4 m/s 730 mmHg 82%
    17:00 +8°C° 0.5 mm 4 m/s 730 mmHg 86%
    18:00 +8°C° 0.5 mm 3 m/s 731 mmHg 90%
    19:00 +8°C° 0.2 mm 3 m/s 731 mmHg 90%
    20:00 +8°C° 0.2 mm 3 m/s 731 mmHg 91%
    21:00 +8°C° 0.2 mm 2 m/s 732 mmHg 91%
    22:00 +7°C° 0.2 mm 2 m/s 732 mmHg 91%
    23:00 +7°C° 0.2 mm 2 m/s 732 mmHg 91%

    1 Martie, Duminică

    Timp Temperatura Precipitaţii Vânt Presiune Umiditate
    00:00 +7°C° 0.2 mm 2 m/s 732 mmHg 91%
    01:00 +7°C° 0.2 mm 2 m/s 732 mmHg 92%
    02:00 +7°C° 0.2 mm 2 m/s 732 mmHg 92%
    03:00 +7°C° 0.2 mm 2 m/s 731 mmHg 92%
    04:00 +7°C° 0 mm 2 m/s 731 mmHg 92%
    05:00 +7°C° 0 mm 2 m/s 731 mmHg 91%
    06:00 +7°C° 0 mm 2 m/s 731 mmHg 91%
    07:00 +7°C° 0 mm 2 m/s 731 mmHg 88%
    08:00 +8°C° 0 mm 2 m/s 731 mmHg 85%
    09:00 +8°C° 0 mm 2 m/s 731 mmHg 82%
    10:00 +10°C° 0 mm 1 m/s 731 mmHg 76%
    11:00 +11°C° 0 mm 1 m/s 731 mmHg 70%
    12:00 +13°C° 0 mm 1 m/s 730 mmHg 65%
    13:00 +13°C° 0 mm 1 m/s 730 mmHg 63%
    14:00 +14°C° 0 mm 1 m/s 729 mmHg 62%
    15:00 +14°C° 0 mm 1 m/s 728 mmHg 60%
    16:00 +13°C° 0.1 mm 2 m/s 728 mmHg 67%
    17:00 +10°C° 0.1 mm 2 m/s 728 mmHg 74%
    18:00 +9°C° 0.1 mm 2 m/s 728 mmHg 81%
    19:00 +8°C° 0.5 mm 4 m/s 728 mmHg 81%
    20:00 +8°C° 0.5 mm 6 m/s 729 mmHg 81%
    21:00 +7°C° 0.5 mm 9 m/s 730 mmHg 81%
    22:00 +6°C° 0.2 mm 7 m/s 730 mmHg 83%
    23:00 +6°C° 0.2 mm 5 m/s 731 mmHg 85%
    Arată mai mult